This demonstration page uses our WeatherBlox Daily Observations layout. Learn more.

Left ArrowRight Arrow

Hourly Observations for September 23, 2017

Temp ( °F °C ) Dew Point ( °F °C ) Humidity (%) Winds ( mph kmh ) Pressure ( in mb ) Visibility ( mi km ) Precip ( " mm )
12:51 am 00:51 Clear 72 22.2 45 7.2 38 38 NNW 8 13 29.59 1002 10 16 N/A
1:51 am 01:51 Clear 65 18.3 45 7.2 49 49 S 6 9 29.60 1002 10 16 N/A
2:51 am 02:51 Clear 66 18.9 45 7.2 47 47 ESE 9 15 29.60 1002 10 16 N/A
3:51 am 03:51 Clear 64 17.8 43 6.1 46 46 SSE 5 7 29.59 1002 10 16 N/A
4:51 am 04:51 Mostly Cloudy 66 18.9 43 6.1 43 43 N N/A 29.60 1002 10 16 N/A
5:51 am 05:51 Partly Cloudy 63 17.2 42 5.6 47 47 WNW 7 11 29.63 1003 10 16 N/A
6:51 am 06:51 Cloudy 66 18.9 44 6.7 45 45 WNW 9 15 29.64 1004 10 16 N/A
7:51 am 07:51 Mostly Cloudy 72 22.2 40 4.4 31 31 NW 12 19 29.65 1004 10 16 N/A
8:51 am 08:51 Sunny 76 24.4 40 4.4 27 27 WNW 10 17 29.65 1004 10 16 N/A
9:51 am 09:51 Sunny 78 25.6 43 6.1 29 29 N N/A 29.64 1004 10 16 N/A
10:51 am 10:51 Mostly Cloudy 78 25.6 45 7.2 31 31 SSW 7 11 29.65 1004 10 16 N/A
11:51 am 11:51 Mostly Sunny 82 27.8 45 7.2 27 27 S 8 13 29.61 1003 10 16 N/A
12:51 pm 12:51 Sunny 86 30 38 3.3 18 18 SSW 21 33 29.58 1002 10 16 N/A
1:51 pm 13:51 Partly Cloudy 86 30 38 3.3 18 18 VRB 7 11 29.57 1001 10 16 N/A
2:51 pm 14:51 Sunny 85 29.4 35 1.7 17 17 WSW 9 15 29.56 1001 10 16 N/A
3:51 pm 15:51 Partly Cloudy 87 30.6 36 2.2 16 16 NW 13 20 29.55 1001 10 16 N/A
4:51 pm 16:51 Mostly Cloudy 85 29.4 34 1.1 16 16 NW 22 35 29.55 1001 10 16 N/A
5:51 pm 17:51 Sunny 80 26.7 32 undefined 17 17 WNW 20 31 29.58 1002 10 16 N/A
6:51 pm 18:51 Clear 76 24.4 25 -3.9 15 15 NW 17 28 29.61 1003 10 16 N/A
7:51 pm 19:51 Clear 73 22.8 22 -5.6 15 15 NW 16 26 29.62 1003 10 16 N/A
8:51 pm 20:51 Clear 71 21.7 22 -5.6 16 16 NW 17 28 29.63 1003 10 16 N/A
9:51 pm 21:51 Clear 69 20.6 21 -6.1 16 16 NW 13 20 29.65 1004 10 16 N/A
10:51 pm 22:51 Clear 67 19.4 21 -6.1 17 17 NW 14 22 29.66 1004 10 16 N/A
11:51 pm 23:51 Clear 65 18.3 21 -6.1 19 19 WNW 9 15 29.67 1005 10 16 N/A

Powered by AerisWeather